Home   Weather   Houston   Past weeks

Flag for USA Past Weather in Houston, Texas, USA — Yesterday and Last 2 Weeks

Now
69 °F

Broken clouds.


Feels Like: 69 °F
Forecast: 69 / 83 °F
Wind: 3 mph from South

Location: Houston Hobby Airport

Current Time: Feb 27, 2017 at 8:07:17 am

Latest Report: Feb 27, 2017 at 7:17 am


Visibility: 9 mi

Pressure: 29.99 "Hg

Humidity: 96%

Dew Point: 68 °F

Location of HoustonLocation

Past Weather in Houston — Graph

°F

Houston Temperature Yesterday

Maximum temperature yesterday: 74 °F (at 11:53 am)
Minimum temperature yesterday: 49 °F (at 4:53 am)
Average temperature yesterday: 65 °F

High & Low Weather Summary for the Past Weeks

 TemperatureHumidityPressure
High84 °F (Feb 12, 12:53 pm)100% (Feb 18, 3:03 am)30.19 "Hg (Feb 18, 3:03 am)
Low44 °F (Feb 16, 6:53 am)14% (Feb 24, 5:53 pm)29.66 "Hg (Feb 24, 3:20 am)
Average65 °F74%29.95 "Hg
* Reported Feb 12 6:53 am — Feb 27 6:53 am, Houston, Weather by CustomWeather, © 2017

Note: Actual official high and low records may vary slightly from our data, if they occured in-between our weather recording intervals... More about our weather records

Advertising

Houston Weather History for the Previous 24 Hours

Scroll right to see more
 ConditionsComfort  
Time TempWeatherWind HumidityBarometerVisibility
6:53 am
Mon, Feb 27
69 °FPartly sunny.5 mph93%29.99 "Hg10 mi
5:53 am69 °FMostly cloudy.No wind93%29.98 "Hg9 mi
5:00 am70 °FMostly cloudy.3 mph93%29.95 "Hg10 mi
3:53 am70 °FLow clouds.7 mph90%29.94 "Hg10 mi
3:00 am70 °FLow clouds.8 mph90%29.91 "Hg10 mi
2:04 am69 °FOvercast.8 mph93%29.91 "Hg10 mi
1:53 am69 °FMostly cloudy.9 mph93%29.93 "Hg9 mi
12:53 am69 °FMostly cloudy.8 mph93%29.94 "Hg9 mi
11:53 pm
Sun, Feb 26
68 °FPartly cloudy.12 mph93%29.94 "Hg10 mi
10:53 pm69 °FMostly cloudy.9 mph87%29.97 "Hg10 mi
9:53 pm69 °FMostly cloudy.8 mph84%29.97 "Hg10 mi
8:53 pm69 °FMostly cloudy.5 mph81%29.97 "Hg10 mi
7:53 pm69 °FMostly cloudy.8 mph79%29.95 "Hg10 mi
7:30 pm69 °FMostly cloudy.6 mph76%29.93 "Hg10 mi
6:53 pm69 °FPassing clouds.9 mph76%29.95 "Hg10 mi
5:53 pm70 °FMostly cloudy.12 mph71%29.95 "Hg10 mi
4:53 pm70 °FBroken clouds.13 mph68%29.95 "Hg10 mi
3:53 pm71 °FMostly cloudy.15 mph63%29.96 "Hg10 mi
2:53 pm71 °FMostly cloudy.10 mph63%29.96 "Hg10 mi
1:53 pm72 °FMostly cloudy.12 mph61%29.98 "Hg10 mi
12:53 pm74 °FBroken clouds.14 mph56%30.00 "Hg10 mi
11:53 am74 °FBroken clouds.15 mph57%30.04 "Hg10 mi
10:53 am71 °FBroken clouds.14 mph61%30.06 "Hg10 mi
9:53 am69 °FScattered clouds.17 mph63%30.06 "Hg10 mi
8:53 am65 °FScattered clouds.10 mph68%30.06 "Hg10 mi
Weather by CustomWeather, © 2017

See weather overviewHow to use our weather pages